Location: ?????
(55.8833°N, 37.6500°E)
Time: 09:27:23
(UTC+00:00)

COSMO-SKYMED 1 - Pass Details

Date: 27 February 2020
Orbit: 621 x 623 km, 97.9° (Epoch: 27 March)

Event Time Altitude Azimuth Distance (km) Brightness Sun altitude
Rises 15:28:02 0° 17° (NNE) 2,919 5.8 -5.0°
Reaches altitude 10° 15:30:17 10° 23° (NNE) 2,008 4.9 -5.3°
Maximum altitude 15:34:34 53° 100° (E) 772 2.7 -5.9°
Drops below altitude 10° 15:38:48 10° 178° (S) 1,991 5.2 -6.5°
Sets 15:41:02 0° 183° (S) 2,892 6.1 -6.8°
